Location: Huberhof
(49.2050°N, 7.4980°E)
Time: 00:26:41
(UTC+00:00)

Cosmos 1302 Rocket - Pass Details

Date: 29 October 2020
Orbit: 756 x 777 km, 74.0° (Epoch: 26 November)

Event Time Altitude Azimuth Distance (km) Brightness Sun altitude
Rises 16:55:41 0° 187° (S) 3,226 7.5 -7.5°
Reaches altitude 10° 16:58:05 10° 182° (S) 2,307 6.7 -7.9°
Maximum altitude 17:03:10 54° 107° (ESE) 942 4.2 -8.7°
Drops below altitude 10° 17:08:19 10° 31° (NNE) 2,334 6.1 -9.5°
Sets 17:10:45 0° 27° (NNE) 3,268 6.9 -9.9°
